Wetterdaten: Mittwoch, 26.03.2014
Datum Zeit Temperatur Luftfeuchte Luftdruck Regen Wind Richtung Richtung Taupunkt Windchill Windben
26.03.2014 00:00 -3,0 C 88 % 1008,1 hPa 0,0 l/m 0,0 km/h (0 Bft) SW 225 -4,7 C 16,1 C 0,0 km/h (0 Bft)
26.03.2014 00:05 -3,5 C 88 % 1008,1 hPa 0,0 l/m 0,0 km/h (0 Bft) SW 225 -5,2 C 16,1 C 0,0 km/h (0 Bft)
26.03.2014 00:10 -3,8 C 87 % 1008,0 hPa 0,0 l/m 0,0 km/h (0 Bft) SW 225 -5,6 C 16,1 C 0,0 km/h (0 Bft)
26.03.2014 00:15 -3,6 C 87 % 1008,0 hPa 0,0 l/m 0,0 km/h (0 Bft) SW 225 -5,4 C 16,1 C 0,0 km/h (0 Bft)
26.03.2014 00:20 -4,0 C 87 % 1008,0 hPa 0,0 l/m 0,0 km/h (0 Bft) SW 225 -5,8 C 16,1 C 0,0 km/h (0 Bft)
26.03.2014 00:25 -4,1 C 87 % 1008,0 hPa 0,0 l/m 0,0 km/h (0 Bft) SW 225 -5,9 C 16,1 C 0,0 km/h (0 Bft)
26.03.2014 00:30 -3,5 C 87 % 1008,0 hPa 0,0 l/m 0,0 km/h (0 Bft) SW 225 -5,3 C 16,1 C 0,0 km/h (0 Bft)
26.03.2014 00:35 -4,0 C 87 % 1008,0 hPa 0,0 l/m 0,0 km/h (0 Bft) SW 225 -5,8 C 16,1 C 0,0 km/h (0 Bft)
26.03.2014 00:40 -4,2 C 87 % 1008,0 hPa 0,0 l/m 0,0 km/h (0 Bft) SW 225 -6,0 C 16,1 C 0,0 km/h (0 Bft)
26.03.2014 00:45 -4,2 C 87 % 1008,0 hPa 0,0 l/m 0,0 km/h (0 Bft) SW 225 -6,0 C 16,1 C 0,0 km/h (0 Bft)
26.03.2014 00:50 -4,0 C 87 % 1008,1 hPa 0,0 l/m 0,0 km/h (0 Bft) SW 225 -5,8 C 16,1 C 0,0 km/h (0 Bft)
26.03.2014 00:55 -3,5 C 88 % 1008,1 hPa 0,0 l/m 0,0 km/h (0 Bft) SW 225 -5,2 C 16,1 C 0,0 km/h (0 Bft)
26.03.2014 01:00 -3,4 C 88 % 1008,1 hPa 0,0 l/m 0,0 km/h (0 Bft) SW 225 -5,1 C 16,1 C 0,0 km/h (0 Bft)
26.03.2014 01:05 -3,2 C 88 % 1008,1 hPa 0,0 l/m 0,0 km/h (0 Bft) SW 225 -4,9 C 16,1 C 0,0 km/h (0 Bft)
26.03.2014 01:10 -3,2 C 88 % 1008,2 hPa 0,0 l/m 0,0 km/h (0 Bft) SW 225 -4,9 C 16,1 C 0,0 km/h (0 Bft)
26.03.2014 01:15 -3,2 C 88 % 1008,2 hPa 0,0 l/m 0,0 km/h (0 Bft) SW 225 -4,9 C 16,1 C 0,0 km/h (0 Bft)
26.03.2014 01:20 -3,2 C 88 % 1008,2 hPa 0,0 l/m 0,0 km/h (0 Bft) SW 225 -4,9 C 16,1 C 0,0 km/h (0 Bft)
26.03.2014 01:25 -3,1 C 88 % 1008,2 hPa 0,0 l/m 0,0 km/h (0 Bft) SW 225 -4,8 C 16,1 C 0,0 km/h (0 Bft)
26.03.2014 01:30 -3,1 C 88 % 1008,0 hPa 0,0 l/m 0,0 km/h (0 Bft) SW 225 -4,8 C 16,1 C 0,0 km/h (0 Bft)
26.03.2014 01:35 -2,9 C 88 % 1008,0 hPa 0,0 l/m 0,0 km/h (0 Bft) SW 225 -4,6 C 16,1 C 0,0 km/h (0 Bft)
26.03.2014 01:40 -2,5 C 89 % 1008,0 hPa 0,0 l/m 0,0 km/h (0 Bft) SW 225 -4,1 C 16,1 C 0,0 km/h (0 Bft)
26.03.2014 01:45 -2,4 C 89 % 1008,0 hPa 0,0 l/m 0,0 km/h (0 Bft) SW 225 -4,0 C 16,1 C 0,0 km/h (0 Bft)
26.03.2014 01:50 -2,3 C 89 % 1007,9 hPa 0,0 l/m 0,0 km/h (0 Bft) SW 225 -3,9 C 16,1 C 0,0 km/h (0 Bft)
26.03.2014 01:55 -1,9 C 90 % 1007,9 hPa 0,0 l/m 0,0 km/h (0 Bft) SW 225 -3,3 C 16,1 C 0,0 km/h (0 Bft)
26.03.2014 02:00 -1,9 C 90 % 1007,9 hPa 0,0 l/m 0,0 km/h (0 Bft) SW 225 -3,3 C 16,1 C 0,0 km/h (0 Bft)
26.03.2014 02:05 -1,9 C 90 % 1007,9 hPa 0,0 l/m 0,0 km/h (0 Bft) SW 225 -3,3 C 16,1 C 0,0 km/h (0 Bft)
26.03.2014 02:10 -1,8 C 91 % 1007,9 hPa 0,0 l/m 0,0 km/h (0 Bft) SW 225 -3,1 C 16,1 C 0,0 km/h (0 Bft)
26.03.2014 02:15 -1,8 C 91 % 1007,9 hPa 0,0 l/m 0,0 km/h (0 Bft) SW 225 -3,1 C 16,1 C 0,0 km/h (0 Bft)
26.03.2014 02:20 -1,8 C 91 % 1007,9 hPa 0,0 l/m 0,0 km/h (0 Bft) SW 225 -3,1 C 16,1 C 0,0 km/h (0 Bft)
26.03.2014 02:25 -2,0 C 91 % 1007,9 hPa 0,0 l/m 0,0 km/h (0 Bft) SW 225 -3,3 C 16,1 C 0,0 km/h (0 Bft)
26.03.2014 02:30 -2,0 C 91 % 1007,8 hPa 0,0 l/m 0,0 km/h (0 Bft) SW 225 -3,3 C 16,1 C 0,0 km/h (0 Bft)
26.03.2014 02:35 -2,3 C 91 % 1007,8 hPa 0,0 l/m 0,0 km/h (0 Bft) SW 225 -3,6 C 16,1 C 0,0 km/h (0 Bft)
26.03.2014 02:40 -2,3 C 91 % 1007,8 hPa 0,0 l/m 0,0 km/h (0 Bft) SW 225 -3,6 C 16,1 C 0,0 km/h (0 Bft)
26.03.2014 02:45 -2,4 C 91 % 1007,8 hPa 0,0 l/m 0,0 km/h (0 Bft) SW 225 -3,7 C 16,1 C 0,0 km/h (0 Bft)
26.03.2014 02:50 -2,4 C 91 % 1007,4 hPa 0,0 l/m 0,0 km/h (0 Bft) SW 225 -3,7 C 16,1 C 0,0 km/h (0 Bft)
26.03.2014 02:55 -2,7 C 91 % 1007,4 hPa 0,0 l/m 0,0 km/h (0 Bft) SW 225 -4,0 C 16,1 C 0,0 km/h (0 Bft)
26.03.2014 03:00 -2,9 C 90 % 1007,4 hPa 0,0 l/m 0,0 km/h (0 Bft) SW 225 -4,3 C 16,1 C 0,0 km/h (0 Bft)
26.03.2014 03:05 -2,9 C 90 % 1007,4 hPa 0,0 l/m 0,0 km/h (0 Bft) SW 225 -4,3 C 16,1 C 0,0 km/h (0 Bft)
26.03.2014 03:10 -3,0 C 90 % 1007,6 hPa 0,0 l/m 0,0 km/h (0 Bft) SW 225 -4,4 C 16,1 C 0,0 km/h (0 Bft)
26.03.2014 03:15 -3,0 C 90 % 1007,6 hPa 0,0 l/m 0,0 km/h (0 Bft) SW 225 -4,4 C 16,1 C 0,0 km/h (0 Bft)
26.03.2014 03:20 -3,0 C 90 % 1007,6 hPa 0,0 l/m 0,0 km/h (0 Bft) SW 225 -4,4 C 16,1 C 0,0 km/h (0 Bft)
26.03.2014 03:25 -3,2 C 90 % 1007,6 hPa 0,0 l/m 0,0 km/h (0 Bft) SW 225 -4,6 C 16,1 C 0,0 km/h (0 Bft)
26.03.2014 03:30 -3,3 C 90 % 1007,2 hPa 0,0 l/m 0,0 km/h (0 Bft) SW 225 -4,7 C 16,1 C 0,0 km/h (0 Bft)
26.03.2014 03:35 -3,4 C 89 % 1007,2 hPa 0,0 l/m 0,0 km/h (0 Bft) SW 225 -4,9 C 16,1 C 0,0 km/h (0 Bft)
26.03.2014 03:40 -3,5 C 89 % 1007,2 hPa 0,0 l/m 0,0 km/h (0 Bft) SW 225 -5,0 C 16,1 C 0,0 km/h (0 Bft)
26.03.2014 03:45 -3,8 C 89 % 1007,2 hPa 0,0 l/m 0,0 km/h (0 Bft) SW 225 -5,3 C 16,1 C 0,0 km/h (0 Bft)
26.03.2014 03:50 -3,7 C 89 % 1007,6 hPa 0,0 l/m 0,0 km/h (0 Bft) SW 225 -5,2 C 16,1 C 0,0 km/h (0 Bft)
26.03.2014 03:55 -3,6 C 89 % 1007,6 hPa 0,0 l/m 0,0 km/h (0 Bft) SW 225 -5,1 C 16,1 C 0,0 km/h (0 Bft)
26.03.2014 04:00 -3,5 C 90 % 1007,6 hPa 0,0 l/m 0,0 km/h (0 Bft) SW 225 -4,9 C 16,1 C 0,0 km/h (0 Bft)
26.03.2014 04:05 -3,5 C 90 % 1007,6 hPa 0,0 l/m 0,0 km/h (0 Bft) SW 225 -4,9 C 16,1 C 0,0 km/h (0 Bft)
26.03.2014 04:10 -3,3 C 90 % 1007,6 hPa 0,0 l/m 0,0 km/h (0 Bft) SW 225 -4,7 C 16,1 C 0,0 km/h (0 Bft)
26.03.2014 04:15 -3,2 C 90 % 1007,6 hPa 0,0 l/m 0,0 km/h (0 Bft) SW 225 -4,6 C 16,1 C 0,0 km/h (0 Bft)
26.03.2014 04:20 -3,0 C 90 % 1007,6 hPa 0,0 l/m 0,0 km/h (0 Bft) SW 225 -4,4 C 16,1 C 0,0 km/h (0 Bft)
26.03.2014 04:25 -2,8 C 90 % 1007,6 hPa 0,0 l/m 0,0 km/h (0 Bft) SW 225 -4,2 C 16,1 C 0,0 km/h (0 Bft)
26.03.2014 04:30 -2,7 C 90 % 1007,5 hPa 0,0 l/m 0,0 km/h (0 Bft) SW 225 -4,1 C 16,1 C 0,0 km/h (0 Bft)
26.03.2014 04:35 -2,6 C 90 % 1007,5 hPa 0,0 l/m 0,0 km/h (0 Bft) SW 225 -4,0 C 16,1 C 0,0 km/h (0 Bft)
26.03.2014 04:40 -2,5 C 90 % 1007,5 hPa 0,0 l/m 0,0 km/h (0 Bft) SW 225 -3,9 C 16,1 C 0,0 km/h (0 Bft)
26.03.2014 04:45 -2,5 C 90 % 1007,5 hPa 0,0 l/m 0,0 km/h (0 Bft) SW 225 -3,9 C 16,1 C 0,0 km/h (0 Bft)
26.03.2014 04:50 -2,5 C 90 % 1007,6 hPa 0,0 l/m 0,0 km/h (0 Bft) SW 225 -3,9 C 16,1 C 0,0 km/h (0 Bft)
26.03.2014 04:55 -2,5 C 90 % 1007,6 hPa 0,0 l/m 0,0 km/h (0 Bft) SW 225 -3,9 C 16,1 C 0,0 km/h (0 Bft)
26.03.2014 05:00 -2,5 C 90 % 1007,6 hPa 0,0 l/m 0,0 km/h (0 Bft) SW 225 -3,9 C 16,1 C 0,0 km/h (0 Bft)
26.03.2014 05:05 -2,5 C 91 % 1007,6 hPa 0,0 l/m 0,0 km/h (0 Bft) SW 225 -3,8 C 16,1 C 0,0 km/h (0 Bft)
26.03.2014 05:10 -2,5 C 91 % 1007,8 hPa 0,0 l/m 0,0 km/h (0 Bft) SW 225 -3,8 C 16,1 C 0,0 km/h (0 Bft)
26.03.2014 05:15 -2,5 C 90 % 1007,8 hPa 0,0 l/m 0,0 km/h (0 Bft) SW 225 -3,9 C 16,1 C 0,0 km/h (0 Bft)
26.03.2014 05:20 -2,5 C 90 % 1007,8 hPa 0,0 l/m 0,0 km/h (0 Bft) SW 225 -3,9 C 16,1 C 0,0 km/h (0 Bft)
26.03.2014 05:25 -2,5 C 90 % 1007,8 hPa 0,0 l/m 0,0 km/h (0 Bft) SW 225 -3,9 C 16,1 C 0,0 km/h (0 Bft)
26.03.2014 05:30 -2,5 C 90 % 1007,8 hPa 0,0 l/m 0,0 km/h (0 Bft) SW 225 -3,9 C 16,1 C 0,0 km/h (0 Bft)
26.03.2014 05:35 -2,3 C 91 % 1007,8 hPa 0,0 l/m 0,0 km/h (0 Bft) SW 225 -3,6 C 16,1 C 0,0 km/h (0 Bft)
26.03.2014 05:40 -2,3 C 91 % 1007,8 hPa 0,0 l/m 0,0 km/h (0 Bft) SW 225 -3,6 C 16,1 C 0,0 km/h (0 Bft)
26.03.2014 05:45 -2,3 C 91 % 1007,8 hPa 0,0 l/m 0,0 km/h (0 Bft) SW 225 -3,6 C 16,1 C 0,0 km/h (0 Bft)
26.03.2014 05:50 -2,4 C 91 % 1007,8 hPa 0,0 l/m 0,0 km/h (0 Bft) SW 225 -3,7 C 16,1 C 0,0 km/h (0 Bft)
26.03.2014 05:55 -2,4 C 90 % 1007,8 hPa 0,0 l/m 0,0 km/h (0 Bft) SW 225 -3,8 C 16,1 C 0,0 km/h (0 Bft)
26.03.2014 06:00 -2,4 C 91 % 1007,8 hPa 0,0 l/m 0,0 km/h (0 Bft) SW 225 -3,7 C 16,1 C 0,0 km/h (0 Bft)
26.03.2014 06:05 -2,4 C 91 % 1007,8 hPa 0,0 l/m 0,0 km/h (0 Bft) SW 225 -3,7 C 16,1 C 0,0 km/h (0 Bft)
26.03.2014 06:10 -2,4 C 91 % 1007,8 hPa 0,0 l/m 0,0 km/h (0 Bft) SW 225 -3,7 C 16,1 C 0,0 km/h (0 Bft)
26.03.2014 06:15 -2,3 C 91 % 1007,8 hPa 0,0 l/m 0,0 km/h (0 Bft) SW 225 -3,6 C 16,1 C 0,0 km/h (0 Bft)
26.03.2014 06:20 -2,3 C 91 % 1007,8 hPa 0,0 l/m 0,0 km/h (0 Bft) SW 225 -3,6 C 16,1 C 0,0 km/h (0 Bft)
26.03.2014 06:25 -2,3 C 91 % 1007,8 hPa 0,0 l/m 0,0 km/h (0 Bft) SW 225 -3,6 C 16,1 C 0,0 km/h (0 Bft)
26.03.2014 06:30 -2,2 C 91 % 1008,1 hPa 0,0 l/m 0,0 km/h (0 Bft) SW 225 -3,5 C 16,1 C 0,0 km/h (0 Bft)
26.03.2014 06:35 -2,1 C 91 % 1008,1 hPa 0,0 l/m 0,0 km/h (0 Bft) SW 225 -3,4 C 16,1 C 0,0 km/h (0 Bft)
26.03.2014 06:40 -2,1 C 91 % 1008,1 hPa 0,0 l/m 0,0 km/h (0 Bft) SW 225 -3,4 C 16,1 C 0,0 km/h (0 Bft)
26.03.2014 06:45 -2,0 C 91 % 1008,1 hPa 0,0 l/m 0,0 km/h (0 Bft) SW 225 -3,3 C 16,1 C 0,0 km/h (0 Bft)
26.03.2014 06:50 -2,0 C 92 % 1008,1 hPa 0,0 l/m 0,0 km/h (0 Bft) SW 225 -3,1 C 16,1 C 0,0 km/h (0 Bft)
26.03.2014 06:55 -1,9 C 92 % 1008,1 hPa 0,0 l/m 0,0 km/h (0 Bft) SW 225 -3,0 C 16,1 C 0,0 km/h (0 Bft)
26.03.2014 07:00 -1,9 C 92 % 1008,1 hPa 0,0 l/m 0,0 km/h (0 Bft) SW 225 -3,0 C 16,1 C 0,0 km/h (0 Bft)
26.03.2014 07:05 -1,8 C 92 % 1008,1 hPa 0,0 l/m 0,0 km/h (0 Bft) SW 225 -2,9 C 16,1 C 0,0 km/h (0 Bft)
26.03.2014 07:10 -1,7 C 92 % 1008,4 hPa 0,0 l/m 0,0 km/h (0 Bft) SW 225 -2,8 C 16,1 C 0,0 km/h (0 Bft)
26.03.2014 07:15 -1,7 C 92 % 1008,4 hPa 0,0 l/m 0,0 km/h (0 Bft) SW 225 -2,8 C 16,1 C 0,0 km/h (0 Bft)
26.03.2014 07:20 -1,6 C 92 % 1008,4 hPa 0,0 l/m 0,0 km/h (0 Bft) SW 225 -2,7 C 16,1 C 0,0 km/h (0 Bft)
26.03.2014 07:25 -1,6 C 92 % 1008,4 hPa 0,0 l/m 0,0 km/h (0 Bft) SW 225 -2,7 C 16,1 C 0,0 km/h (0 Bft)
26.03.2014 07:30 -1,6 C 92 % 1008,6 hPa 0,0 l/m 0,0 km/h (0 Bft) SW 225 -2,7 C 16,1 C 0,0 km/h (0 Bft)
26.03.2014 07:35 -1,7 C 92 % 1008,6 hPa 0,0 l/m 0,0 km/h (0 Bft) SW 225 -2,8 C 16,1 C 0,0 km/h (0 Bft)
26.03.2014 07:40 -1,5 C 92 % 1008,6 hPa 0,0 l/m 0,0 km/h (0 Bft) SW 225 -2,6 C 16,1 C 0,0 km/h (0 Bft)
26.03.2014 07:45 -1,4 C 92 % 1008,6 hPa 0,0 l/m 0,0 km/h (0 Bft) SW 225 -2,5 C 16,1 C 0,0 km/h (0 Bft)
26.03.2014 07:50 -1,4 C 92 % 1008,8 hPa 0,0 l/m 0,0 km/h (0 Bft) SW 225 -2,5 C 16,1 C 0,0 km/h (0 Bft)
26.03.2014 07:55 -1,0 C 91 % 1008,8 hPa 0,0 l/m 0,0 km/h (0 Bft) SW 225 -2,3 C 16,1 C 0,0 km/h (0 Bft)
26.03.2014 08:00 -1,0 C 91 % 1008,8 hPa 0,0 l/m 0,0 km/h (0 Bft) SW 225 -2,3 C 16,1 C 0,0 km/h (0 Bft)
26.03.2014 08:05 -0,9 C 91 % 1008,8 hPa 0,0 l/m 0,0 km/h (0 Bft) SW 225 -2,2 C 16,1 C 0,0 km/h (0 Bft)
26.03.2014 08:10 -0,7 C 91 % 1009,3 hPa 0,0 l/m 0,0 km/h (0 Bft) SW 225 -2,0 C 16,1 C 0,0 km/h (0 Bft)
26.03.2014 08:15 -0,6 C 91 % 1009,3 hPa 0,0 l/m 0,0 km/h (0 Bft) SW 225 -1,9 C 16,1 C 0,0 km/h (0 Bft)
26.03.2014 08:20 -0,7 C 91 % 1009,3 hPa 0,0 l/m 0,0 km/h (0 Bft) SW 225 -2,0 C 16,1 C 0,0 km/h (0 Bft)
26.03.2014 08:25 -0,8 C 90 % 1009,3 hPa 0,0 l/m 0,0 km/h (0 Bft) SW 225 -2,2 C 16,1 C 0,0 km/h (0 Bft)
26.03.2014 08:30 -0,8 C 90 % 1009,3 hPa 0,0 l/m 0,0 km/h (0 Bft) SW 225 -2,2 C 16,1 C 0,0 km/h (0 Bft)
26.03.2014 08:35 -0,4 C 90 % 1009,3 hPa 0,0 l/m 0,0 km/h (0 Bft) SW 225 -1,8 C 16,1 C 0,0 km/h (0 Bft)
26.03.2014 08:40 -0,7 C 90 % 1009,3 hPa 0,0 l/m 0,0 km/h (0 Bft) SW 225 -2,1 C 16,1 C 0,0 km/h (0 Bft)
26.03.2014 08:45 -0,7 C 90 % 1009,3 hPa 0,0 l/m 0,0 km/h (0 Bft) SW 225 -2,1 C 16,1 C 0,0 km/h (0 Bft)
26.03.2014 08:50 -0,6 C 90 % 1009,4 hPa 0,0 l/m 0,0 km/h (0 Bft) SW 225 -2,0 C 16,1 C 0,0 km/h (0 Bft)
26.03.2014 08:55 -0,1 C 90 % 1009,4 hPa 0,0 l/m 0,0 km/h (0 Bft) SW 225 -1,5 C 16,1 C 0,0 km/h (0 Bft)
26.03.2014 09:00 -0,3 C 89 % 1009,4 hPa 0,0 l/m 0,0 km/h (0 Bft) SW 225 -1,9 C 16,1 C 0,0 km/h (0 Bft)
26.03.2014 09:05 -0,3 C 89 % 1009,4 hPa 0,0 l/m 0,0 km/h (0 Bft) SW 225 -1,9 C 16,1 C 0,0 km/h (0 Bft)
26.03.2014 09:10 -0,2 C 89 % 1009,9 hPa 0,0 l/m 0,0 km/h (0 Bft) SW 225 -1,8 C 16,1 C 0,0 km/h (0 Bft)
26.03.2014 09:15 -0,3 C 89 % 1009,9 hPa 0,0 l/m 0,0 km/h (0 Bft) SW 225 -1,9 C 16,1 C 0,0 km/h (0 Bft)
26.03.2014 09:20 -0,4 C 89 % 1009,9 hPa 0,0 l/m 0,0 km/h (0 Bft) SW 225 -2,0 C 16,1 C 0,0 km/h (0 Bft)
26.03.2014 09:25 0,2 C 89 % 1009,9 hPa 0,0 l/m 0,0 km/h (0 Bft) SW 225 -1,4 C 16,1 C 0,0 km/h (0 Bft)
26.03.2014 09:30 0,1 C 88 % 1009,9 hPa 0,0 l/m 0,0 km/h (0 Bft) SW 225 -1,6 C 16,1 C 0,0 km/h (0 Bft)
26.03.2014 09:35 0,1 C 87 % 1009,9 hPa 0,0 l/m 0,0 km/h (0 Bft) SW 225 -1,8 C 16,1 C 0,0 km/h (0 Bft)
26.03.2014 09:40 0,4 C 87 % 1009,9 hPa 0,0 l/m 0,0 km/h (0 Bft) SW 225 -1,5 C 16,1 C 0,0 km/h (0 Bft)
26.03.2014 09:45 0,5 C 86 % 1009,9 hPa 0,0 l/m 0,0 km/h (0 Bft) SW 225 -1,6 C 16,1 C 0,0 km/h (0 Bft)
26.03.2014 09:50 0,7 C 86 % 1010,2 hPa 0,0 l/m 0,0 km/h (0 Bft) SW 225 -1,4 C 16,1 C 0,0 km/h (0 Bft)
26.03.2014 09:55 1,0 C 85 % 1010,2 hPa 0,0 l/m 0,0 km/h (0 Bft) SW 225 -1,2 C 16,1 C 0,0 km/h (0 Bft)
26.03.2014 10:00 1,3 C 85 % 1010,2 hPa 0,0 l/m 0,0 km/h (0 Bft) SW 225 -0,9 C 16,1 C 0,0 km/h (0 Bft)
26.03.2014 10:05 1,2 C 83 % 1010,2 hPa 0,0 l/m 0,0 km/h (0 Bft) SW 225 -1,4 C 16,1 C 0,0 km/h (0 Bft)
26.03.2014 10:10 0,8 C 83 % 1010,6 hPa 0,0 l/m 0,0 km/h (0 Bft) SW 225 -1,8 C 16,1 C 0,0 km/h (0 Bft)
26.03.2014 10:15 0,8 C 81 % 1010,6 hPa 0,0 l/m 0,0 km/h (0 Bft) SW 225 -2,1 C 16,1 C 0,0 km/h (0 Bft)
26.03.2014 10:20 1,3 C 81 % 1010,6 hPa 0,0 l/m 0,0 km/h (0 Bft) SW 225 -1,6 C 16,1 C 0,0 km/h (0 Bft)
26.03.2014 10:25 2,0 C 81 % 1010,6 hPa 0,0 l/m 0,0 km/h (0 Bft) SW 225 -0,9 C 16,1 C 0,0 km/h (0 Bft)
26.03.2014 10:30 2,7 C 81 % 1010,8 hPa 0,0 l/m 0,0 km/h (0 Bft) SW 225 -0,2 C 16,1 C 0,0 km/h (0 Bft)
26.03.2014 10:35 3,2 C 78 % 1010,8 hPa 0,0 l/m 0,0 km/h (0 Bft) SW 225 -0,3 C 16,1 C 0,0 km/h (0 Bft)
26.03.2014 10:40 2,3 C 74 % 1010,8 hPa 0,0 l/m 0,0 km/h (0 Bft) SW 225 -1,8 C 16,1 C 0,0 km/h (0 Bft)
26.03.2014 10:45 2,8 C 73 % 1010,8 hPa 0,0 l/m 0,0 km/h (0 Bft) SW 225 -1,5 C 16,1 C 0,0 km/h (0 Bft)
26.03.2014 10:50 2,3 C 73 % 1010,8 hPa 0,0 l/m 0,0 km/h (0 Bft) SW 225 -2,0 C 16,1 C 0,0 km/h (0 Bft)
26.03.2014 10:55 2,6 C 76 % 1010,8 hPa 0,0 l/m 0,0 km/h (0 Bft) SW 225 -1,2 C 16,1 C 0,0 km/h (0 Bft)
26.03.2014 11:00 2,0 C 72 % 1010,8 hPa 0,0 l/m 0,0 km/h (0 Bft) SW 225 -2,5 C 16,1 C 0,0 km/h (0 Bft)
26.03.2014 11:05 2,9 C 77 % 1010,8 hPa 0,0 l/m 0,0 km/h (0 Bft) SW 225 -0,7 C 16,1 C 0,0 km/h (0 Bft)
26.03.2014 11:10 3,3 C 75 % 1011,0 hPa 0,0 l/m 0,0 km/h (0 Bft) SW 225 -0,7 C 16,1 C 0,0 km/h (0 Bft)
26.03.2014 11:15 2,6 C 75 % 1011,0 hPa 0,0 l/m 0,0 km/h (0 Bft) SW 225 -1,4 C 16,1 C 0,0 km/h (0 Bft)
26.03.2014 11:20 2,7 C 74 % 1011,0 hPa 0,0 l/m 0,0 km/h (0 Bft) SW 225 -1,5 C 16,1 C 0,0 km/h (0 Bft)
26.03.2014 11:25 2,7 C 73 % 1011,0 hPa 0,0 l/m 0,0 km/h (0 Bft) SW 225 -1,6 C 16,1 C 0,0 km/h (0 Bft)
26.03.2014 11:30 2,7 C 73 % 1011,1 hPa 0,0 l/m 0,0 km/h (0 Bft) SW 225 -1,6 C 16,1 C 0,0 km/h (0 Bft)
26.03.2014 11:35 3,0 C 71 % 1011,1 hPa 0,0 l/m 0,0 km/h (0 Bft) SW 225 -1,7 C 16,1 C 0,0 km/h (0 Bft)
26.03.2014 11:40 3,3 C 71 % 1011,1 hPa 0,0 l/m 0,0 km/h (0 Bft) SW 225 -1,4 C 16,1 C 0,0 km/h (0 Bft)
26.03.2014 11:45 3,6 C 70 % 1011,1 hPa 0,0 l/m 0,0 km/h (0 Bft) SW 225 -1,3 C 16,1 C 0,0 km/h (0 Bft)
26.03.2014 11:50 3,3 C 69 % 1010,9 hPa 0,0 l/m 0,0 km/h (0 Bft) SW 225 -1,8 C 16,1 C 0,0 km/h (0 Bft)
26.03.2014 11:55 4,3 C 72 % 1010,9 hPa 0,0 l/m 0,0 km/h (0 Bft) SW 225 -0,3 C 16,1 C 0,0 km/h (0 Bft)
26.03.2014 12:00 4,0 C 68 % 1010,9 hPa 0,0 l/m 0,0 km/h (0 Bft) SW 225 -1,4 C 16,1 C 0,0 km/h (0 Bft)
26.03.2014 12:05 3,4 C 67 % 1010,9 hPa 0,0 l/m 0,0 km/h (0 Bft) SW 225 -2,1 C 16,1 C 0,0 km/h (0 Bft)
26.03.2014 12:10 3,6 C 68 % 1011,1 hPa 0,0 l/m 0,0 km/h (0 Bft) SW 225 -1,7 C 16,1 C 0,0 km/h (0 Bft)
26.03.2014 12:15 4,4 C 65 % 1011,1 hPa 0,0 l/m 0,0 km/h (0 Bft) SW 225 -1,6 C 16,1 C 0,0 km/h (0 Bft)
26.03.2014 12:20 3,6 C 65 % 1011,1 hPa 0,0 l/m 0,0 km/h (0 Bft) SW 225 -2,4 C 16,1 C 0,0 km/h (0 Bft)
26.03.2014 12:25 4,6 C 68 % 1011,1 hPa 0,0 l/m 0,0 km/h (0 Bft) SW 225 -0,8 C 16,1 C 0,0 km/h (0 Bft)
26.03.2014 12:30 4,4 C 63 % 1011,2 hPa 0,0 l/m 0,0 km/h (0 Bft) SW 225 -2,0 C 16,1 C 0,0 km/h (0 Bft)
26.03.2014 12:35 3,8 C 62 % 1011,2 hPa 0,0 l/m 0,0 km/h (0 Bft) SW 225 -2,8 C 16,1 C 0,0 km/h (0 Bft)
26.03.2014 12:40 5,4 C 62 % 1011,2 hPa 0,0 l/m 0,0 km/h (0 Bft) SW 225 -1,3 C 16,1 C 0,0 km/h (0 Bft)
26.03.2014 12:45 5,4 C 57 % 1011,2 hPa 0,0 l/m 0,0 km/h (0 Bft) SW 225 -2,4 C 16,1 C 0,0 km/h (0 Bft)
26.03.2014 12:50 4,7 C 57 % 1011,2 hPa 0,0 l/m 0,0 km/h (0 Bft) SW 225 -3,1 C 16,1 C 0,0 km/h (0 Bft)
26.03.2014 12:55 6,9 C 57 % 1011,2 hPa 0,0 l/m 0,0 km/h (0 Bft) SW 225 -1,0 C 16,1 C 0,0 km/h (0 Bft)
26.03.2014 13:00 7,0 C 55 % 1011,2 hPa 0,0 l/m 0,0 km/h (0 Bft) SW 225 -1,4 C 16,1 C 0,0 km/h (0 Bft)
26.03.2014 13:05 7,6 C 54 % 1011,2 hPa 0,0 l/m 0,0 km/h (0 Bft) SW 225 -1,1 C 16,1 C 0,0 km/h (0 Bft)
26.03.2014 13:10 7,4 C 52 % 1011,2 hPa 0,0 l/m 0,0 km/h (0 Bft) SW 225 -1,8 C 16,1 C 0,0 km/h (0 Bft)
26.03.2014 13:15 8,2 C 53 % 1011,2 hPa 0,0 l/m 0,0 km/h (0 Bft) SW 225 -0,8 C 16,1 C 0,0 km/h (0 Bft)
26.03.2014 13:20 8,8 C 52 % 1011,2 hPa 0,0 l/m 0,0 km/h (0 Bft) SW 225 -0,5 C 16,1 C 0,0 km/h (0 Bft)
26.03.2014 13:25 9,2 C 51 % 1011,2 hPa 0,0 l/m 0,0 km/h (0 Bft) SW 225 -0,4 C 16,1 C 0,0 km/h (0 Bft)
26.03.2014 13:30 8,2 C 50 % 1011,6 hPa 0,0 l/m 0,0 km/h (0 Bft) SW 225 -1,6 C 16,1 C 0,0 km/h (0 Bft)
26.03.2014 13:35 8,4 C 50 % 1011,6 hPa 0,0 l/m 0,0 km/h (0 Bft) SW 225 -1,4 C 16,1 C 0,0 km/h (0 Bft)
26.03.2014 13:40 8,4 C 50 % 1011,6 hPa 0,0 l/m 0,0 km/h (0 Bft) SW 225 -1,4 C 16,1 C 0,0 km/h (0 Bft)
26.03.2014 13:45 7,8 C 49 % 1011,6 hPa 0,0 l/m 0,0 km/h (0 Bft) SW 225 -2,2 C 16,1 C 0,0 km/h (0 Bft)
26.03.2014 13:50 8,3 C 48 % 1011,3 hPa 0,0 l/m 0,0 km/h (0 Bft) SW 225 -2,1 C 16,1 C 0,0 km/h (0 Bft)
26.03.2014 13:55 8,6 C 50 % 1011,3 hPa 0,0 l/m 0,0 km/h (0 Bft) SW 225 -1,2 C 16,1 C 0,0 km/h (0 Bft)
26.03.2014 14:00 8,3 C 48 % 1011,3 hPa 0,0 l/m 0,0 km/h (0 Bft) SW 225 -2,1 C 16,1 C 0,0 km/h (0 Bft)
26.03.2014 14:05 7,9 C 48 % 1011,3 hPa 0,0 l/m 0,0 km/h (0 Bft) SW 225 -2,4 C 16,1 C 0,0 km/h (0 Bft)
26.03.2014 14:10 8,1 C 48 % 1011,4 hPa 0,0 l/m 0,0 km/h (0 Bft) SW 225 -2,2 C 16,1 C 0,0 km/h (0 Bft)
26.03.2014 14:15 9,2 C 49 % 1011,4 hPa 0,0 l/m 0,0 km/h (0 Bft) SW 225 -0,9 C 16,1 C 0,0 km/h (0 Bft)
26.03.2014 14:20 10,1 C 47 % 1011,4 hPa 0,0 l/m 0,0 km/h (0 Bft) SW 225 -0,7 C 16,1 C 0,0 km/h (0 Bft)
26.03.2014 14:25 9,9 C 46 % 1011,4 hPa 0,0 l/m 0,0 km/h (0 Bft) SW 225 -1,2 C 16,1 C 0,0 km/h (0 Bft)
26.03.2014 14:30 9,9 C 47 % 1011,3 hPa 0,0 l/m 0,0 km/h (0 Bft) SW 225 -0,9 C 16,1 C 0,0 km/h (0 Bft)
26.03.2014 14:35 8,9 C 47 % 1011,3 hPa 0,0 l/m 0,0 km/h (0 Bft) SW 225 -1,8 C 16,1 C 0,0 km/h (0 Bft)
26.03.2014 14:40 8,6 C 48 % 1011,3 hPa 0,0 l/m 0,0 km/h (0 Bft) SW 225 -1,8 C 16,1 C 0,0 km/h (0 Bft)
26.03.2014 14:45 8,5 C 48 % 1011,3 hPa 0,0 l/m 0,0 km/h (0 Bft) SW 225 -1,9 C 16,1 C 0,0 km/h (0 Bft)
26.03.2014 14:50 8,5 C 49 % 1011,1 hPa 0,0 l/m 0,0 km/h (0 Bft) SW 225 -1,6 C 16,1 C 0,0 km/h (0 Bft)
26.03.2014 14:55 8,2 C 49 % 1011,1 hPa 0,0 l/m 0,0 km/h (0 Bft) SW 225 -1,9 C 16,1 C 0,0 km/h (0 Bft)
26.03.2014 15:00 8,5 C 49 % 1011,1 hPa 0,0 l/m 0,0 km/h (0 Bft) SW 225 -1,6 C 16,1 C 0,0 km/h (0 Bft)
26.03.2014 15:05 8,5 C 49 % 1011,1 hPa 0,0 l/m 0,0 km/h (0 Bft) SW 225 -1,6 C 16,1 C 0,0 km/h (0 Bft)
26.03.2014 15:10 9,0 C 50 % 1011,2 hPa 0,0 l/m 0,0 km/h (0 Bft) SW 225 -0,9 C 16,1 C 0,0 km/h (0 Bft)
26.03.2014 15:15 9,0 C 49 % 1011,2 hPa 0,0 l/m 0,0 km/h (0 Bft) SW 225 -1,1 C 16,1 C 0,0 km/h (0 Bft)
26.03.2014 15:20 8,9 C 50 % 1011,2 hPa 0,0 l/m 0,0 km/h (0 Bft) SW 225 -0,9 C 16,1 C 0,0 km/h (0 Bft)
26.03.2014 15:25 9,3 C 49 % 1011,2 hPa 0,0 l/m 0,0 km/h (0 Bft) SW 225 -0,9 C 16,1 C 0,0 km/h (0 Bft)
26.03.2014 15:30 8,9 C 50 % 1010,8 hPa 0,0 l/m 0,0 km/h (0 Bft) SW 225 -0,9 C 16,1 C 0,0 km/h (0 Bft)
26.03.2014 15:33 8,3 C 52 % 1010,8 hPa 0,0 l/m 0,0 km/h (0 Bft) SW 225 -1,0 C 16,1 C 0,0 km/h (0 Bft)
26.03.2014 15:35 8,3 C 52 % 1010,8 hPa 0,0 l/m 0,0 km/h (0 Bft) SW 225 -1,0 C 16,1 C 0,0 km/h (0 Bft)
26.03.2014 15:40 7,8 C 54 % 1010,8 hPa 0,0 l/m 0,0 km/h (0 Bft) SW 225 -0,9 C 16,1 C 0,0 km/h (0 Bft)
26.03.2014 15:45 8,0 C 53 % 1010,8 hPa 0,0 l/m 0,0 km/h (0 Bft) SW 225 -1,0 C 16,1 C 0,0 km/h (0 Bft)
26.03.2014 15:50 7,5 C 56 % 1010,6 hPa 0,0 l/m 0,0 km/h (0 Bft) SW 225 -0,7 C 16,1 C 0,0 km/h (0 Bft)
26.03.2014 15:55 7,9 C 56 % 1010,6 hPa 0,0 l/m 0,0 km/h (0 Bft) SW 225 -0,3 C 16,1 C 0,0 km/h (0 Bft)
26.03.2014 16:00 7,7 C 56 % 1010,6 hPa 0,0 l/m 0,0 km/h (0 Bft) SW 225 -0,5 C 16,1 C 0,0 km/h (0 Bft)
26.03.2014 16:05 8,3 C 56 % 1010,6 hPa 0,0 l/m 0,0 km/h (0 Bft) SW 225 0,0 C 16,1 C 0,0 km/h (0 Bft)
26.03.2014 16:10 8,2 C 56 % 1010,2 hPa 0,0 l/m 0,0 km/h (0 Bft) SW 225 -0,0 C 16,1 C 0,0 km/h (0 Bft)
26.03.2014 16:15 8,2 C 56 % 1010,2 hPa 0,0 l/m 0,0 km/h (0 Bft) SW 225 -0,0 C 16,1 C 0,0 km/h (0 Bft)
26.03.2014 16:20 8,2 C 56 % 1010,2 hPa 0,0 l/m 0,0 km/h (0 Bft) SW 225 -0,0 C 16,1 C 0,0 km/h (0 Bft)
26.03.2014 16:25 7,5 C 58 % 1010,2 hPa 0,0 l/m 0,0 km/h (0 Bft) SW 225 -0,2 C 16,1 C 0,0 km/h (0 Bft)
26.03.2014 16:30 6,9 C 59 % 1010,4 hPa 0,0 l/m 0,0 km/h (0 Bft) SW 225 -0,5 C 16,1 C 0,0 km/h (0 Bft)
26.03.2014 16:35 6,6 C 59 % 1010,4 hPa 0,0 l/m 0,0 km/h (0 Bft) SW 225 -0,8 C 16,1 C 0,0 km/h (0 Bft)
26.03.2014 16:40 6,7 C 59 % 1010,4 hPa 0,0 l/m 0,0 km/h (0 Bft) SW 225 -0,7 C 16,1 C 0,0 km/h (0 Bft)
26.03.2014 16:45 6,8 C 60 % 1010,4 hPa 0,0 l/m 0,0 km/h (0 Bft) SW 225 -0,4 C 16,1 C 0,0 km/h (0 Bft)
26.03.2014 16:50 6,7 C 61 % 1010,7 hPa 0,0 l/m 0,0 km/h (0 Bft) SW 225 -0,3 C 16,1 C 0,0 km/h (0 Bft)
26.03.2014 16:55 6,2 C 62 % 1010,7 hPa 0,0 l/m 0,0 km/h (0 Bft) SW 225 -0,5 C 16,1 C 0,0 km/h (0 Bft)
26.03.2014 17:00 5,9 C 65 % 1010,7 hPa 0,0 l/m 0,0 km/h (0 Bft) SW 225 -0,2 C 16,1 C 0,0 km/h (0 Bft)
26.03.2014 17:05 5,7 C 66 % 1010,7 hPa 0,0 l/m 0,0 km/h (0 Bft) SW 225 -0,1 C 16,1 C 0,0 km/h (0 Bft)
26.03.2014 17:10 5,4 C 66 % 1010,6 hPa 0,0 l/m 0,0 km/h (0 Bft) SW 225 -0,4 C 16,1 C 0,0 km/h (0 Bft)
26.03.2014 17:15 5,2 C 67 % 1010,6 hPa 0,0 l/m 0,0 km/h (0 Bft) SW 225 -0,4 C 16,1 C 0,0 km/h (0 Bft)
26.03.2014 17:20 5,2 C 68 % 1010,6 hPa 0,0 l/m 0,0 km/h (0 Bft) SW 225 -0,2 C 16,1 C 0,0 km/h (0 Bft)
26.03.2014 17:25 5,3 C 66 % 1010,6 hPa 0,0 l/m 0,0 km/h (0 Bft) SW 225 -0,5 C 16,1 C 0,0 km/h (0 Bft)
26.03.2014 17:30 5,1 C 67 % 1010,7 hPa 0,0 l/m 0,0 km/h (0 Bft) SW 225 -0,5 C 16,1 C 0,0 km/h (0 Bft)
26.03.2014 17:35 5,2 C 68 % 1010,7 hPa 0,0 l/m 0,0 km/h (0 Bft) SW 225 -0,2 C 16,1 C 0,0 km/h (0 Bft)
26.03.2014 17:40 5,1 C 68 % 1010,7 hPa 0,0 l/m 0,0 km/h (0 Bft) SW 225 -0,3 C 16,1 C 0,0 km/h (0 Bft)
26.03.2014 17:45 5,0 C 69 % 1010,7 hPa 0,0 l/m 0,0 km/h (0 Bft) SW 225 -0,2 C 16,1 C 0,0 km/h (0 Bft)
26.03.2014 17:50 5,0 C 69 % 1010,4 hPa 0,0 l/m 0,0 km/h (0 Bft) SW 225 -0,2 C 16,1 C 0,0 km/h (0 Bft)
26.03.2014 17:55 5,0 C 68 % 1010,4 hPa 0,0 l/m 0,0 km/h (0 Bft) SW 225 -0,4 C 16,1 C 0,0 km/h (0 Bft)
26.03.2014 18:00 4,9 C 68 % 1010,4 hPa 0,0 l/m 0,0 km/h (0 Bft) SW 225 -0,5 C 16,1 C 0,0 km/h (0 Bft)
26.03.2014 18:05 4,8 C 68 % 1010,4 hPa 0,0 l/m 0,0 km/h (0 Bft) SW 225 -0,6 C 16,1 C 0,0 km/h (0 Bft)
26.03.2014 18:10 4,7 C 68 % 1010,4 hPa 0,0 l/m 0,0 km/h (0 Bft) SW 225 -0,7 C 16,1 C 0,0 km/h (0 Bft)
26.03.2014 18:15 4,7 C 68 % 1010,4 hPa 0,0 l/m 0,0 km/h (0 Bft) SW 225 -0,7 C 16,1 C 0,0 km/h (0 Bft)
26.03.2014 18:20 4,5 C 68 % 1010,4 hPa 0,0 l/m 0,0 km/h (0 Bft) SW 225 -0,9 C 16,1 C 0,0 km/h (0 Bft)
26.03.2014 18:25 4,3 C 69 % 1010,4 hPa 0,0 l/m 0,0 km/h (0 Bft) SW 225 -0,9 C 16,1 C 0,0 km/h (0 Bft)
26.03.2014 18:30 4,1 C 69 % 1010,6 hPa 0,0 l/m 0,0 km/h (0 Bft) SW 225 -1,1 C 16,1 C 0,0 km/h (0 Bft)
26.03.2014 18:35 3,8 C 70 % 1010,6 hPa 0,0 l/m 0,0 km/h (0 Bft) SW 225 -1,2 C 16,1 C 0,0 km/h (0 Bft)
26.03.2014 18:40 3,5 C 71 % 1010,6 hPa 0,0 l/m 0,0 km/h (0 Bft) SW 225 -1,3 C 16,1 C 0,0 km/h (0 Bft)
26.03.2014 18:45 3,2 C 73 % 1010,6 hPa 0,0 l/m 0,0 km/h (0 Bft) SW 225 -1,2 C 16,1 C 0,0 km/h (0 Bft)
26.03.2014 18:50 3,0 C 73 % 1010,6 hPa 0,0 l/m 0,0 km/h (0 Bft) SW 225 -1,4 C 16,1 C 0,0 km/h (0 Bft)
26.03.2014 18:55 2,8 C 76 % 1010,6 hPa 0,0 l/m 0,0 km/h (0 Bft) SW 225 -1,0 C 16,1 C 0,0 km/h (0 Bft)
26.03.2014 19:00 2,7 C 76 % 1010,6 hPa 0,0 l/m 0,0 km/h (0 Bft) SW 225 -1,1 C 16,1 C 0,0 km/h (0 Bft)
26.03.2014 19:05 2,4 C 77 % 1010,6 hPa 0,0 l/m 0,0 km/h (0 Bft) SW 225 -1,2 C 16,1 C 0,0 km/h (0 Bft)
26.03.2014 19:10 2,2 C 78 % 1010,9 hPa 0,0 l/m 0,0 km/h (0 Bft) SW 225 -1,2 C 16,1 C 0,0 km/h (0 Bft)
26.03.2014 19:15 1,9 C 79 % 1010,9 hPa 0,0 l/m 0,0 km/h (0 Bft) SW 225 -1,3 C 16,1 C 0,0 km/h (0 Bft)
26.03.2014 19:20 1,7 C 79 % 1010,9 hPa 0,0 l/m 0,0 km/h (0 Bft) SW 225 -1,5 C 16,1 C 0,0 km/h (0 Bft)
26.03.2014 19:25 1,6 C 81 % 1010,9 hPa 0,0 l/m 0,0 km/h (0 Bft) SW 225 -1,3 C 16,1 C 0,0 km/h (0 Bft)
26.03.2014 19:30 1,4 C 81 % 1010,9 hPa 0,0 l/m 0,0 km/h (0 Bft) SW 225 -1,5 C 16,1 C 0,0 km/h (0 Bft)
26.03.2014 19:35 1,3 C 82 % 1010,9 hPa 0,0 l/m 0,0 km/h (0 Bft) SW 225 -1,4 C 16,1 C 0,0 km/h (0 Bft)
26.03.2014 19:40 1,3 C 82 % 1010,9 hPa 0,0 l/m 0,0 km/h (0 Bft) SW 225 -1,4 C 16,1 C 0,0 km/h (0 Bft)
26.03.2014 19:45 1,1 C 83 % 1010,9 hPa 0,0 l/m 0,0 km/h (0 Bft) SW 225 -1,5 C 16,1 C 0,0 km/h (0 Bft)
26.03.2014 19:50 0,7 C 83 % 1010,6 hPa 0,0 l/m 0,0 km/h (0 Bft) SW 225 -1,8 C 16,1 C 0,0 km/h (0 Bft)
26.03.2014 19:55 0,2 C 82 % 1010,6 hPa 0,0 l/m 0,0 km/h (0 Bft) SW 225 -2,5 C 16,1 C 0,0 km/h (0 Bft)
26.03.2014 20:00 -0,1 C 82 % 1010,6 hPa 0,0 l/m 0,0 km/h (0 Bft) SW 225 -2,8 C 16,1 C 0,0 km/h (0 Bft)
26.03.2014 20:05 0,2 C 83 % 1010,6 hPa 0,0 l/m 0,0 km/h (0 Bft) SW 225 -2,3 C 16,1 C 0,0 km/h (0 Bft)
26.03.2014 20:10 0,4 C 83 % 1011,0 hPa 0,0 l/m 0,0 km/h (0 Bft) SW 225 -2,1 C 16,1 C 0,0 km/h (0 Bft)
26.03.2014 20:15 0,1 C 84 % 1011,0 hPa 0,0 l/m 0,0 km/h (0 Bft) SW 225 -2,3 C 16,1 C 0,0 km/h (0 Bft)
26.03.2014 20:20 -0,1 C 84 % 1011,0 hPa 0,0 l/m 0,0 km/h (0 Bft) SW 225 -2,5 C 16,1 C 0,0 km/h (0 Bft)
26.03.2014 20:25 -0,4 C 84 % 1011,0 hPa 0,0 l/m 0,0 km/h (0 Bft) SW 225 -2,8 C 16,1 C 0,0 km/h (0 Bft)
26.03.2014 20:30 -0,5 C 84 % 1011,4 hPa 0,0 l/m 0,0 km/h (0 Bft) SW 225 -2,9 C 16,1 C 0,0 km/h (0 Bft)
26.03.2014 20:33 -0,9 C 84 % 1011,4 hPa 0,0 l/m 0,0 km/h (0 Bft) SW 225 -3,3 C 16,1 C 0,0 km/h (0 Bft)
26.03.2014 20:35 -0,9 C 84 % 1011,4 hPa 0,0 l/m 0,0 km/h (0 Bft) SW 225 -3,3 C 16,1 C 0,0 km/h (0 Bft)
26.03.2014 20:40 -1,1 C 84 % 1011,4 hPa 0,0 l/m 0,0 km/h (0 Bft) SW 225 -3,4 C 16,1 C 0,0 km/h (0 Bft)
26.03.2014 20:45 -1,0 C 84 % 1011,4 hPa 0,0 l/m 0,0 km/h (0 Bft) SW 225 -3,4 C 16,1 C 0,0 km/h (0 Bft)
26.03.2014 20:50 -1,2 C 84 % 1011,2 hPa 0,0 l/m 0,0 km/h (0 Bft) SW 225 -3,5 C 16,1 C 0,0 km/h (0 Bft)
26.03.2014 20:55 -0,9 C 85 % 1011,2 hPa 0,0 l/m 0,0 km/h (0 Bft) SW 225 -3,1 C 16,1 C 0,0 km/h (0 Bft)
26.03.2014 21:00 -1,0 C 85 % 1011,2 hPa 0,0 l/m 0,0 km/h (0 Bft) SW 225 -3,2 C 16,1 C 0,0 km/h (0 Bft)
26.03.2014 21:05 -1,3 C 85 % 1011,2 hPa 0,0 l/m 0,0 km/h (0 Bft) SW 225 -3,5 C 16,1 C 0,0 km/h (0 Bft)
26.03.2014 21:10 -1,4 C 85 % 1011,4 hPa 0,0 l/m 0,0 km/h (0 Bft) SW 225 -3,6 C 16,1 C 0,0 km/h (0 Bft)
26.03.2014 21:15 -1,4 C 85 % 1011,4 hPa 0,0 l/m 0,0 km/h (0 Bft) SW 225 -3,6 C 16,1 C 0,0 km/h (0 Bft)
26.03.2014 21:20 -1,6 C 85 % 1011,4 hPa 0,0 l/m 0,0 km/h (0 Bft) SW 225 -3,8 C 16,1 C 0,0 km/h (0 Bft)
26.03.2014 21:25 -1,5 C 86 % 1011,4 hPa 0,0 l/m 0,0 km/h (0 Bft) SW 225 -3,5 C 16,1 C 0,0 km/h (0 Bft)
26.03.2014 21:30 -1,7 C 86 % 1011,6 hPa 0,0 l/m 0,0 km/h (0 Bft) SW 225 -3,7 C 16,1 C 0,0 km/h (0 Bft)
26.03.2014 21:35 -1,4 C 86 % 1011,6 hPa 0,0 l/m 0,0 km/h (0 Bft) SW 225 -3,4 C 16,1 C 0,0 km/h (0 Bft)
26.03.2014 21:40 -0,9 C 87 % 1011,6 hPa 0,0 l/m 0,0 km/h (0 Bft) SW 225 -2,8 C 16,1 C 0,0 km/h (0 Bft)
26.03.2014 21:45 -0,5 C 88 % 1011,6 hPa 0,0 l/m 0,0 km/h (0 Bft) SW 225 -2,2 C 16,1 C 0,0 km/h (0 Bft)
26.03.2014 21:50 -0,9 C 88 % 1011,5 hPa 0,0 l/m 0,0 km/h (0 Bft) SW 225 -2,6 C 16,1 C 0,0 km/h (0 Bft)
26.03.2014 21:55 -1,3 C 88 % 1011,5 hPa 0,0 l/m 0,0 km/h (0 Bft) SW 225 -3,0 C 16,1 C 0,0 km/h (0 Bft)
26.03.2014 22:00 -1,5 C 88 % 1011,5 hPa 0,0 l/m 0,0 km/h (0 Bft) SW 225 -3,2 C 16,1 C 0,0 km/h (0 Bft)
26.03.2014 22:05 -1,4 C 88 % 1011,5 hPa 0,0 l/m 0,0 km/h (0 Bft) SW 225 -3,1 C 16,1 C 0,0 km/h (0 Bft)
26.03.2014 22:10 -1,4 C 88 % 1011,4 hPa 0,0 l/m 0,0 km/h (0 Bft) SW 225 -3,1 C 16,1 C 0,0 km/h (0 Bft)
26.03.2014 22:15 -1,6 C 88 % 1011,4 hPa 0,0 l/m 0,0 km/h (0 Bft) SW 225 -3,3 C 16,1 C 0,0 km/h (0 Bft)
26.03.2014 22:20 -1,7 C 88 % 1011,4 hPa 0,0 l/m 0,0 km/h (0 Bft) SW 225 -3,4 C 16,1 C 0,0 km/h (0 Bft)
26.03.2014 22:25 -1,6 C 88 % 1011,4 hPa 0,0 l/m 0,0 km/h (0 Bft) SW 225 -3,3 C 16,1 C 0,0 km/h (0 Bft)
26.03.2014 22:30 -1,8 C 88 % 1011,0 hPa 0,0 l/m 0,0 km/h (0 Bft) SW 225 -3,5 C 16,1 C 0,0 km/h (0 Bft)
26.03.2014 22:35 -1,9 C 88 % 1011,0 hPa 0,0 l/m 0,0 km/h (0 Bft) SW 225 -3,6 C 16,1 C 0,0 km/h (0 Bft)
26.03.2014 22:40 -2,0 C 88 % 1011,0 hPa 0,0 l/m 0,0 km/h (0 Bft) SW 225 -3,7 C 16,1 C 0,0 km/h (0 Bft)
26.03.2014 22:45 -2,2 C 88 % 1011,0 hPa 0,0 l/m 0,0 km/h (0 Bft) SW 225 -3,9 C 16,1 C 0,0 km/h (0 Bft)
26.03.2014 22:50 -2,3 C 88 % 1011,1 hPa 0,0 l/m 0,0 km/h (0 Bft) SW 225 -4,0 C 16,1 C 0,0 km/h (0 Bft)
26.03.2014 22:55 -2,1 C 88 % 1011,1 hPa 0,0 l/m 0,0 km/h (0 Bft) SW 225 -3,8 C 16,1 C 0,0 km/h (0 Bft)
26.03.2014 23:00 -1,9 C 88 % 1011,1 hPa 0,0 l/m 0,0 km/h (0 Bft) SW 225 -3,6 C 16,1 C 0,0 km/h (0 Bft)
26.03.2014 23:05 -1,6 C 89 % 1011,1 hPa 0,0 l/m 0,0 km/h (0 Bft) SW 225 -3,2 C 16,1 C 0,0 km/h (0 Bft)
26.03.2014 23:10 -1,5 C 89 % 1010,8 hPa 0,0 l/m 0,0 km/h (0 Bft) SW 225 -3,1 C 16,1 C 0,0 km/h (0 Bft)
26.03.2014 23:15 -2,1 C 89 % 1010,8 hPa 0,0 l/m 0,0 km/h (0 Bft) SW 225 -3,7 C 16,1 C 0,0 km/h (0 Bft)
26.03.2014 23:20 -2,3 C 89 % 1010,8 hPa 0,0 l/m 0,0 km/h (0 Bft) SW 225 -3,9 C 16,1 C 0,0 km/h (0 Bft)
26.03.2014 23:25 -1,9 C 89 % 1010,8 hPa 0,0 l/m 0,0 km/h (0 Bft) SW 225 -3,5 C 16,1 C 0,0 km/h (0 Bft)
26.03.2014 23:30 -2,0 C 89 % 1010,7 hPa 0,0 l/m 0,0 km/h (0 Bft) SW 225 -3,6 C 16,1 C 0,0 km/h (0 Bft)
26.03.2014 23:35 -2,4 C 88 % 1010,7 hPa 0,0 l/m 0,0 km/h (0 Bft) SW 225 -4,1 C 16,1 C 0,0 km/h (0 Bft)
26.03.2014 23:40 -2,1 C 88 % 1010,7 hPa 0,0 l/m 0,0 km/h (0 Bft) SW 225 -3,8 C 16,1 C 0,0 km/h (0 Bft)
26.03.2014 23:45 -2,4 C 88 % 1010,7 hPa 0,0 l/m 0,0 km/h (0 Bft) SW 225 -4,1 C 16,1 C 0,0 km/h (0 Bft)
26.03.2014 23:50 -2,4 C 88 % 1010,6 hPa 0,0 l/m 0,0 km/h (0 Bft) SW 225 -4,1 C 16,1 C 0,0 km/h (0 Bft)
26.03.2014 23:55 -2,5 C 88 % 1010,6 hPa 0,0 l/m 0,0 km/h (0 Bft) SW 225 -4,2 C 16,1 C 0,0 km/h (0 Bft)
_ Min-Zeit 00:45 14:25 03:45 - 23:55 - - 00:45 23:55 23:55
Minimum _ -4,2 C 46 % 1007,2 hPa - 0,0 km/h (0 Bft) - - -6,0 C 16,1 C 0,0 km/h (0 Bft)
_ Max-Zeit 14:20 07:50 21:45 23:55 23:55 - - 16:05 23:55 23:55
Maximum _ 10,1 C 92 % 1011,6 hPa 0,0 l/m 0,0 km/h
SW (0 Bft)
- - 0,0 C 16,1 C 0,0 km/h
SW (0 Bft)
Durchschnitt _ 1,1 C 79 % 1009,8 hPa #0,0 l/m 0,0 km/h (0 Bft) - - - -2,5 C 16,1 C 0,0 km/h (0 Bft)